User: anonymous   Login
Location: ??
(35.1714°N, 128.2806°E)
Time: 14:08:03
(UTC+00:00)
Language:

Abrixas rocket - Orbit

View from above orbital plane
View from above orbital plane
View from above satellite
View from above satellite

Ground track
Ground track

The orbit data is extracted from the following two-line orbital elements,

1 25723U 99022C   21016.79153951  .00048710  00000-0  16985-3 0  9993
2 25723  48.4071 263.2449 0003023 236.9194 123.1475 15.88728775211383
Epoch (UTC): 16 January 2021 18:59:49
Eccentricity: 0.0003023
inclination: 48.4071°
perigee height: 304 km
apogee height: 308 km
right ascension of ascending node: 263.2449°
argument of perigee: 236.9194°
revolutions per day: 15.88728775
mean anomaly at epoch: 123.1475°
orbit number at epoch: 21138

The dashed part of the orbit path shows where the satellite is in the earth's shadow,  

DLR